星链-2359 (STARLINK-2359 )

导读 | 豆包AI

STARLINK-2359是美国SpaceX公司星链星座中的一员,于2021年3月14日发射升空。它属于星链低轨通信卫星星座,运行在近地轨道,配备霍尔推进器与自主避撞系统,主要为全球提供高速宽带互联网服务,单星设计寿命约5-7年,退役后会主动离轨坠入大气层烧毁。

Basic Information
目录编号:
47899
目录名称:
STARLINK-2359
国际标识:
2021-021AR
轨道中心:
EARTH
卫星名称:
星链-2359
卫星全名:
星链-2359 (STARLINK-2359 )
卫星状态:
已陨落 最后检测时间 2023-10-18
发射日期:
2021-03-14 UTC
国别 :
美国 (US)
星等 :
--
Orbit Information
数据来源 国际轨道数据
星历时间: 2023-10-19T09:04:34+0800
轨道信息已过期877天
半长轴: 6531km
偏心率: 0.000697
轨道倾角: 53.008°
近地点辐角 283.878°
升交点赤经 122.096°
平近点角 126.130°
近地点: 148.312km
远地点: 157.418km
周期: 87.545分钟
每日圈数: 16.448764
Detailed Information
固有亮度:
5
最大亮度:
2.5
卫星平台:
Starlink V1.0
覆盖范围:
全球
运营商:
太空探索技术公司
运营商所在国:
美国
制造商(研发单位):
太空探索技术公司
制造商所在国:
美国
使用方式:
暂无
Satellite Introduction
星链(Starlink)计划是由太空探索技术公司(SpaceX)提出的一个巨型低轨卫星互联网星座项目,计划在2019年至2024年间在太空搭建由约1.2万颗卫星组成的“星链”网络,其中1584颗将部署在地球上空550千米处的近地轨道,并从2020年开始工作。该卫星已陨落。